#timestamp,LO_Frequency,Hit,Temp,Hum 
1480186815.9,286047005.0,N,0.0,0.0
1480186835.7,286047005.8,N,0.0,0.0
1480186855.5,286047002.9,N,0.0,0.0
1480186875.4,286047003.3,N,0.0,0.0
1480186895.2,286047003.7,N,0.0,0.0
1480186915.1,286047004.4,N,0.0,0.0
1480186916.0,286047004.4,N,0.0,0.0
1480186935.8,286047004.4,N,0.0,0.0
1480186955.6,286047002.2,N,0.0,0.0
1480186975.5,286047002.6,N,0.0,0.0
1480186995.3,286047002.7,N,0.0,0.0
1480187015.1,286047000.4,N,0.0,0.0
1480187035.9,286047000.7,N,0.0,0.0
1480187055.7,286046998.2,N,0.0,0.0
1480187075.6,286046998.8,N,0.0,0.0
1480187095.4,286046999.6,N,0.0,0.0
1480187115.2,286046997.1,N,0.0,0.0
1480187135.1,286046994.9,N,0.0,0.0
1480187136.0,286046994.9,N,0.0,0.0
1480187155.8,286046995.5,N,0.0,0.0
1480187175.7,286046996.1,N,0.0,0.0
1480187195.5,286046995.6,N,0.0,0.0
1480187215.3,286046995.8,N,0.0,0.0
1480187235.2,286046993.3,N,0.0,0.0
1480187255.9,286046993.5,N,0.0,0.0
1480187275.7,286046993.9,N,0.0,0.0
1480187295.6,286046994.2,N,0.0,0.0
1480187315.4,286046994.8,N,0.0,0.0
1480187335.3,286046992.2,N,0.0,0.0
1480187355.1,286046992.4,N,0.0,0.0
1480187356.0,286046992.4,N,0.0,0.0
1480187375.8,286046992.1,N,0.0,0.0
1480187395.7,286046992.5,N,0.0,0.0
1480187415.5,286046992.7,N,0.0,0.0
1480187435.4,286046990.2,N,0.0,0.0
1480187455.2,286046990.4,N,0.0,0.0
1480187475.0,286046990.4,N,0.0,0.0
1480187475.9,286046990.4,N,0.0,0.0
1480187495.8,286046990.9,N,0.0,0.0
1480187515.6,286046991.2,N,0.0,0.0
1480187535.4,286046991.5,N,0.0,0.0
1480187555.3,286046988.8,N,0.0,0.0
1480187575.1,286046989.3,N,0.0,0.0
1480187595.9,286046989.9,N,0.0,0.0
1480187615.7,286046987.4,N,0.0,0.0
1480187635.5,286046987.0,N,0.0,0.0
1480187655.4,286046987.2,N,0.0,0.0
1480187675.2,286046989.9,N,0.0,0.0
1480187695.0,286046989.6,N,0.0,0.0
1480187696.0,286046989.6,N,0.0,0.0
1480187715.8,286046986.9,N,0.0,0.0
1480187735.6,286046987.2,N,0.0,0.0
1480187755.5,286046987.5,N,0.0,0.0
1480187775.3,286046987.9,N,0.0,0.0
1480187795.1,286046985.8,N,0.0,0.0
1480187815.9,286046986.4,N,0.0,0.0
1480187835.7,286046983.8,N,0.0,0.0
1480187855.6,286046983.8,N,0.0,0.0
1480187875.4,286046983.7,N,0.0,0.0
1480187895.2,286046983.8,N,0.0,0.0
1480187915.1,286046984.0,N,0.0,0.0
1480187916.0,286046984.0,N,0.0,0.0
1480187935.8,286046984.0,N,0.0,0.0
1480187955.7,286046984.4,N,0.0,0.0
1480187975.5,286046985.0,N,0.0,0.0
1480187995.3,286046984.7,N,0.0,0.0
1480188015.2,286046984.8,N,0.0,0.0
1480188035.9,286046984.8,N,0.0,0.0
1480188055.7,286046985.2,N,0.0,0.0
1480188075.6,286046982.1,N,0.0,0.0
1480188095.4,286046982.5,N,0.0,0.0
1480188115.3,286046985.1,N,0.0,0.0
1480188135.1,286046982.1,N,0.0,0.0
1480188136.0,286046982.1,N,0.0,0.0
1480188155.8,286046985.1,N,0.0,0.0
1480188175.7,286046982.5,N,0.0,0.0
1480188195.5,286046982.2,N,0.0,0.0
1480188215.3,286046985.0,N,0.0,0.0
1480188235.2,286046983.8,N,0.0,0.0
1480188255.0,286046986.7,N,0.0,0.0
1480188255.9,286046986.7,N,0.0,0.0
1480188275.8,286046984.1,N,0.0,0.0
1480188295.6,286046986.1,N,0.0,0.0
1480188315.4,286046986.4,N,0.0,0.0
1480188335.3,286046986.2,N,0.0,0.0
1480188355.1,286046986.5,N,0.0,0.0
1480188375.9,286046986.1,N,0.0,0.0
1480188395.7,286046986.0,N,0.0,0.0
1480188415.5,286046986.1,N,0.0,0.0
1480188435.4,286046986.0,N,0.0,0.0
1480188455.2,286046985.7,N,0.0,0.0
1480188475.1,286046985.7,N,0.0,0.0
1480188476.0,286046985.7,N,0.0,0.0
1480188495.8,286046988.2,N,0.0,0.0
1480188515.6,286046987.7,N,0.0,0.0
1480188535.5,286046988.4,N,0.0,0.0
1480188555.3,286046987.9,N,0.0,0.0
1480188575.1,286046988.4,N,0.0,0.0
1480188595.9,286046987.2,N,0.0,0.0
1480188615.7,286046986.9,N,0.0,0.0
1480188635.6,286046987.4,N,0.0,0.0
1480188655.4,286046990.0,N,0.0,0.0
1480188675.2,286046989.4,N,0.0,0.0
1480188695.1,286046989.2,N,0.0,0.0
1480188696.0,286046989.2,N,0.0,0.0
1480188715.8,286046989.2,N,0.0,0.0
1480188735.7,286046989.0,N,0.0,0.0
1480188755.5,286046988.9,N,0.0,0.0
1480188775.3,286046988.6,N,0.0,0.0
1480188795.2,286046989.0,N,0.0,0.0
1480188815.0,286046988.5,N,0.0,0.0
1480188815.9,286046988.5,N,0.0,0.0
1480188835.8,286046990.8,N,0.0,0.0
1480188855.6,286046991.4,N,0.0,0.0
1480188875.4,286046990.4,N,0.0,0.0
1480188895.3,286046991.0,N,0.0,0.0
1480188915.1,286046990.8,N,0.0,0.0
1480188935.8,286046993.2,N,0.0,0.0
1480188955.7,286046992.8,N,0.0,0.0
1480188975.5,286046992.4,N,0.0,0.0
1480188995.4,286046992.3,N,0.0,0.0
1480189015.2,286046994.7,N,0.0,0.0
1480189035.0,286046993.5,N,0.0,0.0
1480189035.9,286046993.5,N,0.0,0.0
1480189055.8,286046993.9,N,0.0,0.0
1480189075.6,286046994.0,N,0.0,0.0
1480189095.4,286046996.3,N,0.0,0.0
1480189115.3,286046995.8,N,0.0,0.0
1480189135.1,286046995.5,N,0.0,0.0
1480189155.9,286046995.4,N,0.0,0.0
1480189175.7,286046994.9,N,0.0,0.0
1480189195.5,286046995.4,N,0.0,0.0
1480189215.4,286046997.3,N,0.0,0.0
1480189235.2,286046997.4,N,0.0,0.0
1480189255.0,286046998.0,N,0.0,0.0
1480189256.0,286046998.0,N,0.0,0.0
1480189275.8,286046997.0,N,0.0,0.0
1480189295.6,286046999.6,N,0.0,0.0
1480189315.5,286046998.1,N,0.0,0.0
1480189335.3,286046998.5,N,0.0,0.0
1480189355.1,286047000.9,N,0.0,0.0
1480189375.9,286046999.8,N,0.0,0.0
1480189395.7,286047002.1,N,0.0,0.0
1480189415.6,286047001.5,N,0.0,0.0
1480189435.4,286047001.6,N,0.0,0.0
1480189455.2,286047003.5,N,0.0,0.0
1480189475.1,286047005.7,N,0.0,0.0
1480189476.0,286047005.7,N,0.0,0.0
1480189495.8,286047005.5,N,0.0,0.0
1480189515.7,286047004.6,N,0.0,0.0
1480189535.5,286047002.9,N,0.0,0.0
1480189555.3,286047004.0,N,0.0,0.0
1480189575.2,286047003.4,N,0.0,0.0
1480189595.0,286047002.9,N,0.0,0.0
1480189595.9,286047002.9,N,0.0,0.0
1480189615.8,286047005.7,N,0.0,0.0
1480189635.6,286047004.9,N,0.0,0.0
1480189655.4,286047004.7,N,0.0,0.0
1480189675.3,286047004.5,N,0.0,0.0
1480189695.1,286047004.8,N,0.0,0.0
1480189715.8,286047005.1,N,0.0,0.0
1480189735.7,286047006.8,N,0.0,0.0
1480189755.5,286047009.2,N,0.0,0.0
1480189775.4,286047008.5,N,0.0,0.0
1480189795.2,286047008.5,N,0.0,0.0
1480189815.0,286047010.8,N,0.0,0.0
1480189815.9,286047010.8,N,0.0,0.0
1480189835.8,286047009.6,N,0.0,0.0
1480189855.6,286047010.3,N,0.0,0.0
1480189875.4,286047007.9,N,0.0,0.0
1480189895.3,286047010.6,N,0.0,0.0
1480189915.1,286047009.8,N,0.0,0.0
1480189935.9,286047009.9,N,0.0,0.0
1480189955.7,286047009.8,N,0.0,0.0
1480189975.5,286047010.5,N,0.0,0.0
1480189995.4,286047012.4,N,0.0,0.0
1480190015.2,286047012.3,N,0.0,0.0
1480190035.1,286047012.4,N,0.0,0.0
1480190036.0,286047012.4,N,0.0,0.0
1480190055.8,286047012.1,N,0.0,0.0
1480190075.6,286047011.7,N,0.0,0.0
1480190095.5,286047012.1,N,0.0,0.0
1480190115.3,286047012.4,N,0.0,0.0
1480190135.2,286047012.3,N,0.0,0.0
1480190155.9,286047013.7,N,0.0,0.0
1480190175.7,286047013.3,N,0.0,0.0
1480190195.6,286047013.4,N,0.0,0.0
1480190215.4,286047011.4,N,0.0,0.0
1480190235.2,286047011.6,N,0.0,0.0
1480190255.1,286047011.7,N,0.0,0.0
1480190256.0,286047011.7,N,0.0,0.0
1480190275.8,286047012.4,N,0.0,0.0
1480190295.7,286047012.1,N,0.0,0.0
1480190315.5,286047011.2,N,0.0,0.0
1480190335.3,286047009.5,N,0.0,0.0
1480190355.2,286047009.4,N,0.0,0.0
1480190375.0,286047010.5,N,0.0,0.0
1480190375.9,286047010.5,N,0.0,0.0
1480190395.8,286047010.1,N,0.0,0.0
